Starlink 1321

operational
NORAD ID: 45573 Int'l Des: 2020-025 Owner: SPXS Country: US Constellation: starlink
LEOCIRCULARSTARLINK_TYPE

关于 Starlink 1321

正在加载描述...

实时位置

正在加载3D地球...

即将过境

高度历史

Altitude vs Time

uPlot chart will show altitude changes over time

两行轨道根数

1 45573U 20025AU 25309.20774452 -.00003121 00000-0 -19073-3 0 9995
2 45573 53.0547 275.4398 0001482 83.4072 276.7086 15.06391522306444
Epoch: Nov 5, 2025 • Age: 8 hours

当前状态

高度 551.4 km
速度 7.59 km/s
星下点 47.17°N, 84.06°E
发射日期 Apr 22, 2020
运行时间 5.5 years
类型 internet

技术详情

分类 Payload
质量 260.00 kg
干质量 248.00 kg
总质量 260.00 kg
长度 0.20 m
直径 2.80 m
跨度 9.00 m
形状 Box + pan
制造商 SPXS
平台类型 Starlink
阶段状态 In Orbit
所有者/国家 SPXS/US

大型星座

Loading constellations...